Latest Coastal Weather Observations for Smithton

IDV60701

Issued at 4:51 pm EDT Monday 20 November 2017 (issued every 10 minutes, with the page automatically refreshed every 10 minutes)

About coastal observations | Map of coastal stations | Coastal observations for VIC | Marine services | Other Formats
Station Details ID: 091292 Name: SMITHTON AERODROME Lat: -40.83 Lon: 145.08 Height: 7.5 m
Data from the previous 72 hours. | See also: Recent months at Smithton
Date/Time
EDT
Temp
°C
Wind Pressure Rain since
9am
mm
Weather Cloud Vis
km
Sea
Height
m
Swell
Dir  Spd
kts
Gust
kts
hPa Trend Height
m
Period
s
Dir
20/04:30pm 20.7 ENE 18 25 1023.7 - 0.0 - - - - - - -
20/04:00pm 20.7 ENE 20 25 1023.7 - 0.0 - - - - - - -
20/03:30pm 21.0 ENE 18 26 1024.0 - 0.0 - - - - - - -
20/03:00pm 20.8 ENE 17 25 1024.1 - 0.0 - - - - - - -
20/02:30pm 21.0 ENE 18 23 1024.4 - 0.0 - - - - - - -
20/02:00pm 21.3 ENE 18 27 1024.6 - 0.0 - - - - - - -
20/01:30pm 20.5 ENE 19 26 1024.5 - 0.0 - - - - - - -
20/01:13pm 20.1 ENE 18 28 1024.6 - 0.0 - - - - - - -
20/01:00pm 20.4 ENE 19 26 1024.7 - 0.0 - - - - - - -
20/12:36pm 20.3 E 19 29 1024.9 - 0.0 - - - - - - -
20/12:30pm 20.4 E 20 29 1024.8 - 0.0 - - - - - - -
20/12:27pm 20.3 ENE 19 29 1024.9 - 0.0 - - - - - - -
20/12:00pm 20.0 E 20 26 1025.0 - 0.0 - - - - - - -
20/11:30am 19.3 E 18 24 1025.2 - 0.0 - - - - - - -
20/11:00am 19.3 E 17 23 1025.5 - 0.0 - - - - - - -
20/10:30am 19.0 E 18 24 1025.6 - 0.0 - - - - - - -
20/10:03am 19.2 ENE 16 28 1025.4 - 0.0 - - - - - - -
20/10:00am 19.1 ENE 16 24 1025.4 - 0.0 - - - - - - -
20/09:30am 18.6 E 19 25 1025.3 - 0.0 - - - - - - -
20/09:00am 18.6 E 16 23 1025.2 - 0.0 - - - - - - -
20/08:30am 18.2 E 17 23 1024.9 - 0.0 - - - - - - -
20/08:00am 17.9 E 16 23 1024.9 - 0.0 - - - - - - -
20/07:35am 17.5 E 15 26 1024.8 - 0.0 - - - - - - -
20/07:30am 17.5 E 15 21 1024.7 - 0.0 - - - - - - -
20/07:00am 16.9 E 16 20 1024.3 - 0.0 - - - - - - -
20/06:30am 16.7 E 14 19 1024.2 - 0.0 - - - - - - -
20/06:00am 16.5 E 13 17 1024.2 - 0.0 - - - - - - -
20/05:30am 16.3 E 13 19 1023.7 - 0.0 - - - - - - -
20/05:00am 16.4 E 12 17 1023.6 - 0.0 - - - - - - -
20/04:30am 16.3 E 11 18 1023.6 - 0.0 - - - - - - -
20/04:00am 15.9 E 13 18 1023.6 - 0.0 - - - - - - -
20/03:30am 15.8 E 12 17 1023.6 - 0.0 - - - - - - -
20/03:00am 15.7 E 12 16 1023.4 - 0.0 - - - - - - -
20/02:30am 15.6 E 10 14 1023.7 - 0.0 - - - - - - -
20/02:00am 15.6 ESE 9 11 1023.9 - 0.0 - - - - - - -
20/01:30am 16.4 E 11 14 1024.1 - 0.0 - - - - - - -
20/01:00am 16.4 E 11 14 1024.1 - 0.0 - - - - - - -
20/12:30am 16.3 E 10 19 1024.1 - 0.0 - - - - - - -
20/12:00am 16.6 E 12 15 1024.4 - 0.0 - - - - - - -
 
Date/Time
EDT
Temp
°C
Wind Pressure Rain since
9am
mm
Weather Cloud Vis
km
Sea
Height
m
Swell
Dir  Spd
kts
Gust
kts
hPa Trend Height
m
Period
s
Dir
19/11:30pm 16.7 E 11 16 1024.5 - 0.0 - - - - - - -
19/11:00pm 16.6 E 10 13 1024.5 - 0.0 - - - - - - -
19/10:30pm 16.3 E 8 12 1024.5 - 0.0 - - - - - - -
19/10:00pm 16.5 E 9 12 1024.3 - 0.0 - - - - - - -
19/09:30pm 16.6 E 10 13 1024.0 - 0.0 - - - - - - -
19/09:00pm 16.6 E 8 10 1023.9 - 0.0 - - - - - - -
19/08:30pm 17.0 ENE 9 12 1023.7 - 0.0 - - - - - - -
19/08:00pm 17.8 ENE 11 14 1023.4 - 0.0 - - - - - - -
19/07:30pm 18.6 ENE 13 17 1023.2 - 0.0 - - - - - - -
19/07:00pm 19.6 ENE 14 21 1023.2 - 0.0 - - - - - - -
19/06:30pm 20.2 ENE 15 21 1022.9 - 0.0 - - - - - - -
19/06:00pm 20.6 ENE 16 23 1023.1 - 0.0 - - - - - - -
19/05:30pm 21.4 ENE 16 21 1023.0 - 0.0 - - - - - - -
19/05:00pm 21.6 ENE 17 22 1023.0 - 0.0 - - - - - - -
19/04:30pm 21.8 ENE 17 23 1023.1 - 0.0 - - - - - - -
19/04:00pm 22.0 ENE 17 23 1023.2 - 0.0 - - - - - - -
19/03:30pm 21.7 ENE 17 24 1023.4 - 0.0 - - - - - - -
19/03:00pm 21.9 ENE 17 23 1023.5 - 0.0 - - - - - - -
19/02:30pm 21.7 ENE 18 25 1023.8 - 0.0 - - - - - - -
19/02:00pm 21.9 ENE 17 23 1024.0 - 0.0 - - - - - - -
19/01:30pm 21.3 ENE 18 25 1024.1 - 0.0 - - - - - - -
19/01:00pm 21.1 ENE 17 23 1024.3 - 0.0 - - - - - - -
19/12:30pm 21.2 ENE 17 22 1024.3 - 0.0 - - - - - - -
19/12:00pm 20.8 E 18 24 1024.4 - 0.0 - - - - - - -
19/11:30am 20.6 ENE 17 21 1024.6 - 0.0 - - - - - - -
19/11:00am 20.8 E 16 21 1024.4 - 0.0 - - - - - - -
19/10:30am 20.1 E 18 23 1024.4 - 0.0 - - - - - - -
19/10:00am 20.2 E 17 25 1024.1 - 0.0 - - - - - - -
19/09:30am 20.4 ENE 16 24 1023.7 - 0.0 - - - - - - -
19/09:00am 19.8 E 16 25 1023.3 - 0.0 - - - - - - -
19/08:30am 19.0 E 19 24 1023.0 - 0.0 - - - - - - -
19/08:00am 18.2 E 17 24 1022.6 - 0.0 - - - - - - -
19/07:30am 18.2 E 15 22 1022.5 - 0.0 - - - - - - -
19/07:00am 17.3 E 18 26 1022.2 - 0.0 - - - - - - -
19/06:30am 16.9 E 17 24 1022.1 - 0.0 - - - - - - -
19/06:00am 16.7 E 15 21 1022.1 - 0.0 - - - - - - -
19/05:30am 16.8 E 15 22 1021.9 - 0.0 - - - - - - -
19/05:00am 17.0 E 17 25 1021.5 - 0.0 - - - - - - -
19/04:30am 17.1 E 17 25 1021.3 - 0.0 - - - - - - -
19/04:00am 17.2 E 18 26 1021.3 - 0.0 - - - - - - -
19/03:43am 17.2 E 18 28 1021.5 - 0.0 - - - - - - -
19/03:30am 17.2 E 16 21 1021.6 - 0.0 - - - - - - -
19/03:00am 17.2 E 17 25 1021.4 - 0.0 - - - - - - -
19/02:30am 17.2 E 18 25 1021.4 - 0.0 - - - - - - -
19/02:00am 17.1 E 16 24 1021.3 - 0.0 - - - - - - -
19/01:30am 17.2 E 16 23 1021.5 - 0.0 - - - - - - -
19/01:00am 17.0 E 17 22 1021.8 - 0.0 - - - - - - -
19/12:30am 16.6 E 14 19 1021.8 - 0.0 - - - - - - -
19/12:00am 16.6 E 15 23 1021.7 - 0.0 - - - - - - -
 
Date/Time
EDT
Temp
°C
Wind Pressure Rain since
9am
mm
Weather Cloud Vis
km
Sea
Height
m
Swell
Dir  Spd
kts
Gust
kts
hPa Trend Height
m
Period
s
Dir
18/11:30pm 16.7 E 15 22 1021.7 - 0.0 - - - - - - -
18/11:00pm 16.9 E 15 20 1021.7 - 0.0 - - - - - - -
18/10:30pm 17.0 E 13 17 1021.7 - 0.0 - - - - - - -
18/10:00pm 17.3 E 15 20 1021.7 - 0.0 - - - - - - -
18/09:30pm 17.3 E 13 18 1021.7 - 0.0 - - - - - - -
18/09:00pm 17.6 E 16 23 1021.1 - 0.0 - - - - - - -
18/08:30pm 17.8 E 15 22 1021.3 - 0.0 - - - - - - -
18/08:00pm 18.2 E 16 22 1021.4 - 0.0 - - - - - - -
18/07:30pm 18.6 E 18 25 1021.1 - 0.0 - - - - - - -
18/07:09pm 18.9 E 17 27 1020.8 - 0.0 - - - - - - -
18/07:00pm 19.0 E 17 25 1020.5 - 0.0 - - - - - - -
18/06:30pm 19.7 ENE 17 27 1020.2 - 0.0 - - - - - - -
18/06:18pm 20.0 E 17 27 1020.1 - 0.0 - - - - - - -
18/06:00pm 19.8 E 21 29 1019.9 - 0.0 - - - - - - -
18/05:35pm 20.4 E 17 27 1019.8 - 0.0 - - - - - - -
18/05:30pm 20.2 E 19 27 1019.8 - 0.0 - - - - - - -
18/05:00pm 19.9 ENE 21 29 1019.7 - 0.0 - - - - - - -
18/04:37pm 19.7 ENE 23 33 1019.7 - 0.0 - - - - - - -
18/04:30pm 20.2 ENE 22 31 1019.8 - 0.0 - - - - - - -
18/04:24pm 19.9 ENE 21 31 1019.8 - 0.0 - - - - - - -
18/04:00pm 20.6 ENE 21 29 1020.1 - 0.0 - - - - - - -
18/03:33pm 19.7 ENE 18 28 1020.3 - 0.0 - - - - - - -
18/03:30pm 19.8 ENE 18 25 1020.3 - 0.0 - - - - - - -
18/03:00pm 19.7 ENE 18 24 1020.4 - 0.0 - - - - - - -
18/02:30pm 20.1 ENE 18 26 1020.5 - 0.0 - - - - - - -
18/02:00pm 20.0 ENE 21 29 1020.3 - 0.0 - - - - - - -
18/01:30pm 19.8 E 19 30 1020.4 - 0.0 - - - - - - -
18/01:21pm 19.7 E 20 30 1020.4 - 0.0 - - - - - - -
18/01:00pm 19.9 E 21 30 1020.4 - 0.0 - - - - - - -
18/12:52pm 19.7 ENE 20 30 1020.4 - 0.0 - - - - - - -
18/12:30pm 19.9 E 22 30 1020.5 - 0.0 - - - - - - -
18/12:00pm 20.1 E 20 31 1020.3 - 0.0 - - - - - - -
18/11:55am 19.8 E 21 31 1020.1 - 0.0 - - - - - - -
18/11:30am 20.2 ENE 21 27 1020.1 - 0.0 - - - - - - -
18/11:05am 19.8 E 21 31 1019.9 - 0.0 - - - - - - -
18/11:00am 19.9 E 20 27 1020.0 - 0.0 - - - - - - -
18/10:30am 19.1 E 21 28 1020.2 - 0.0 - - - - - - -
18/10:11am 18.8 E 21 32 1020.2 - 0.0 - - - - - - -
18/10:00am 19.1 E 22 31 1020.1 - 0.0 - - - - - - -
18/09:43am 18.9 E 22 32 1019.9 - 0.0 - - - - - - -
18/09:30am 19.1 E 21 28 1019.9 - 0.0 - - - - - - -
18/09:02am 18.9 E 20 30 1020.0 - 0.0 - - - - - - -
18/09:00am 18.8 E 21 30 1020.1 - 0.0 - - - - - - -
18/08:52am 18.7 E 20 30 1020.1 - 0.0 - - - - - - -
18/08:30am 18.3 E 22 30 1019.9 - 0.0 - - - - - - -
18/08:04am 18.0 E 20 31 1019.5 - 0.0 - - - - - - -
18/08:00am 18.1 E 18 26 1019.5 - 0.0 - - - - - - -
18/07:30am 17.7 E 21 29 1019.3 - 0.0 - - - - - - -
18/07:00am 17.5 E 20 29 1018.8 - 0.0 - - - - - - -
18/06:35am 17.4 E 23 33 1018.4 - 0.0 - - - - - - -
18/06:30am 17.4 E 22 30 1018.3 - 0.0 - - - - - - -
18/06:12am 17.3 E 23 33 1018.1 - 0.0 - - - - - - -
18/06:00am 17.3 E 22 30 1018.0 - 0.0 - - - - - - -
18/05:30am 17.4 E 21 29 1017.9 - 0.0 - - - - - - -
18/05:00am 17.4 E 21 28 1017.3 - 0.0 - - - - - - -
18/04:30am 17.4 E 23 33 1017.3 - 0.0 - - - - - - -
18/04:22am 17.4 E 23 33 1017.2 - 0.0 - - - - - - -
18/04:00am 17.6 E 24 32 1017.3 - 0.0 - - - - - - -
18/03:39am 17.6 E 22 33 1017.3 - 0.0 - - - - - - -
18/03:30am 17.7 E 21 29 1017.4 - 0.0 - - - - - - -
18/03:01am 17.6 E 19 29 1017.6 - 0.0 - - - - - - -
18/03:00am 17.6 E 20 29 1017.6 - 0.0 - - - - - - -
18/02:37am 17.3 E 21 31 1017.3 - 0.0 - - - - - - -
18/02:30am 17.3 E 20 25 1017.4 - 0.0 - - - - - - -
18/02:02am 17.5 E 21 31 1017.7 - 0.0 - - - - - - -
18/02:00am 17.5 E 22 31 1017.8 - 0.0 - - - - - - -
18/01:36am 17.8 E 20 30 1017.8 - 0.0 - - - - - - -
18/01:30am 17.9 E 21 27 1017.8 - 0.0 - - - - - - -
18/01:01am 18.1 E 21 31 1018.1 - 0.0 - - - - - - -
18/01:00am 18.1 E 20 28 1018.2 - 0.0 - - - - - - -
18/12:30am 18.1 E 20 28 1018.0 - 0.0 - - - - - - -
18/12:23am 18.1 E 20 30 1017.9 - 0.0 - - - - - - -
18/12:00am 18.0 E 21 29 1017.8 - 0.0 - - - - - - -
 
Date/Time
EDT
Temp
°C
Wind Pressure Rain since
9am
mm
Weather Cloud Vis
km
Sea
Height
m
Swell
Dir  Spd
kts
Gust
kts
hPa Trend Height
m
Period
s
Dir
17/11:30pm 17.7 E 20 30 1018.1 - 0.0 - - - - - - -
17/11:08pm 17.6 E 15 25 1018.1 - 0.0 - - - - - - -
17/11:00pm 17.6 E 17 25 1018.1 - 0.0 - - - - - - -
17/10:30pm 17.0 E 15 22 1018.0 - 0.0 - - - - - - -
17/10:00pm 16.6 E 15 22 1018.0 - 0.0 - - - - - - -
17/09:30pm 17.2 E 19 27 1017.8 - 0.0 - - - - - - -
17/09:22pm 17.4 E 17 27 1017.7 - 0.0 - - - - - - -
17/09:00pm 17.4 E 17 26 1017.4 - 0.0 - - - - - - -
17/08:53pm 17.5 E 16 26 1017.3 - 0.0 - - - - - - -
17/08:30pm 18.0 E 16 24 1017.6 - 0.0 - - - - - - -
17/08:00pm 18.2 E 14 19 1017.6 - 0.0 - - - - - - -
17/07:30pm 18.3 E 15 23 1017.4 - 0.0 - - - - - - -
17/07:00pm 18.5 E 16 22 1017.4 - 0.0 - - - - - - -
17/06:30pm 19.8 E 15 22 1017.4 - 0.0 - - - - - - -
17/06:01pm 20.7 E 20 30 1017.0 - 0.0 - - - - - - -
17/06:00pm 20.5 E 21 30 1017.0 - 0.0 - - - - - - -
17/05:30pm 21.1 E 19 29 1016.9 - 0.0 - - - - - - -
17/05:03pm 21.4 E 20 30 1017.1 - 0.0 - - - - - - -
17/05:00pm 21.7 E 19 26 1017.1 - 0.0 - - - - - - -

Other Formats:

Comma delimited format used in spreadsheet applications
http://www.bom.gov.au/fwo/IDV60701/IDV60701.94953.axf

JavaScript Object Notation format (JSON) in row-major order
http://www.bom.gov.au/fwo/IDV60701/IDV60701.94953.json